Index of /20260414/WXO-DD/model_gdps/15km/12/081
Name Last modified Size Description
Parent Directory -
20260414T12Z_MSC_GDPS_AbsoluteVorticity_IsbL-0200_LatLon0.15_PT081H.grib2 2026-04-14 16:22 1.5M
20260414T12Z_MSC_GDPS_AbsoluteVorticity_IsbL-0250_LatLon0.15_PT081H.grib2 2026-04-14 16:22 1.3M
20260414T12Z_MSC_GDPS_AbsoluteVorticity_IsbL-0500_LatLon0.15_PT081H.grib2 2026-04-14 16:22 1.4M
20260414T12Z_MSC_GDPS_AbsoluteVorticity_IsbL-0700_LatLon0.15_PT081H.grib2 2026-04-14 16:22 1.3M
20260414T12Z_MSC_GDPS_AbsoluteVorticity_IsbL-0850_LatLon0.15_PT081H.grib2 2026-04-14 16:22 1.6M
20260414T12Z_MSC_GDPS_AirTemp_AGL-120m_LatLon0.15_PT081H.grib2 2026-04-14 16:22 916K
20260414T12Z_MSC_GDPS_AirTemp_AGL-2m_LatLon0.15_PT081H.grib2 2026-04-14 16:22 1.0M
20260414T12Z_MSC_GDPS_AirTemp_AGL-40m_LatLon0.15_PT081H.grib2 2026-04-14 16:22 938K
20260414T12Z_MSC_GDPS_AirTemp_AGL-80m_LatLon0.15_PT081H.grib2 2026-04-14 16:22 926K
20260414T12Z_MSC_GDPS_AirTemp_IsbL-0001_LatLon0.15_PT081H.grib2 2026-04-14 16:22 706K
20260414T12Z_MSC_GDPS_AirTemp_IsbL-0005_LatLon0.15_PT081H.grib2 2026-04-14 16:22 746K
20260414T12Z_MSC_GDPS_AirTemp_IsbL-0010_LatLon0.15_PT081H.grib2 2026-04-14 16:22 754K
20260414T12Z_MSC_GDPS_AirTemp_IsbL-0020_LatLon0.15_PT081H.grib2 2026-04-14 16:22 700K
20260414T12Z_MSC_GDPS_AirTemp_IsbL-0030_LatLon0.15_PT081H.grib2 2026-04-14 16:22 751K
20260414T12Z_MSC_GDPS_AirTemp_IsbL-0050_LatLon0.15_PT081H.grib2 2026-04-14 16:22 821K
20260414T12Z_MSC_GDPS_AirTemp_IsbL-0100_LatLon0.15_PT081H.grib2 2026-04-14 16:22 953K
20260414T12Z_MSC_GDPS_AirTemp_IsbL-0150_LatLon0.15_PT081H.grib2 2026-04-14 16:22 1.0M
20260414T12Z_MSC_GDPS_AirTemp_IsbL-0175_LatLon0.15_PT081H.grib2 2026-04-14 16:22 956K
20260414T12Z_MSC_GDPS_AirTemp_IsbL-0200_LatLon0.15_PT081H.grib2 2026-04-14 16:22 967K
20260414T12Z_MSC_GDPS_AirTemp_IsbL-0225_LatLon0.15_PT081H.grib2 2026-04-14 16:22 971K
20260414T12Z_MSC_GDPS_AirTemp_IsbL-0250_LatLon0.15_PT081H.grib2 2026-04-14 16:22 1.0M
20260414T12Z_MSC_GDPS_AirTemp_IsbL-0275_LatLon0.15_PT081H.grib2 2026-04-14 16:22 1.0M
20260414T12Z_MSC_GDPS_AirTemp_IsbL-0300_LatLon0.15_PT081H.grib2 2026-04-14 16:22 1.0M
20260414T12Z_MSC_GDPS_AirTemp_IsbL-0350_LatLon0.15_PT081H.grib2 2026-04-14 16:22 924K
20260414T12Z_MSC_GDPS_AirTemp_IsbL-0400_LatLon0.15_PT081H.grib2 2026-04-14 16:22 934K
20260414T12Z_MSC_GDPS_AirTemp_IsbL-0450_LatLon0.15_PT081H.grib2 2026-04-14 16:22 958K
20260414T12Z_MSC_GDPS_AirTemp_IsbL-0500_LatLon0.15_PT081H.grib2 2026-04-14 16:22 1.0M
20260414T12Z_MSC_GDPS_AirTemp_IsbL-0550_LatLon0.15_PT081H.grib2 2026-04-14 16:22 795K
20260414T12Z_MSC_GDPS_AirTemp_IsbL-0600_LatLon0.15_PT081H.grib2 2026-04-14 16:22 889K
20260414T12Z_MSC_GDPS_AirTemp_IsbL-0650_LatLon0.15_PT081H.grib2 2026-04-14 16:22 916K
20260414T12Z_MSC_GDPS_AirTemp_IsbL-0700_LatLon0.15_PT081H.grib2 2026-04-14 16:22 953K
20260414T12Z_MSC_GDPS_AirTemp_IsbL-0750_LatLon0.15_PT081H.grib2 2026-04-14 16:22 1.0M
20260414T12Z_MSC_GDPS_AirTemp_IsbL-0800_LatLon0.15_PT081H.grib2 2026-04-14 16:22 1.1M
20260414T12Z_MSC_GDPS_AirTemp_IsbL-0850_LatLon0.15_PT081H.grib2 2026-04-14 16:22 1.1M
20260414T12Z_MSC_GDPS_AirTemp_IsbL-0875_LatLon0.15_PT081H.grib2 2026-04-14 16:22 1.2M
20260414T12Z_MSC_GDPS_AirTemp_IsbL-0900_LatLon0.15_PT081H.grib2 2026-04-14 16:22 1.2M
20260414T12Z_MSC_GDPS_AirTemp_IsbL-0925_LatLon0.15_PT081H.grib2 2026-04-14 16:22 1.1M
20260414T12Z_MSC_GDPS_AirTemp_IsbL-0950_LatLon0.15_PT081H.grib2 2026-04-14 16:22 1.1M
20260414T12Z_MSC_GDPS_AirTemp_IsbL-0970_LatLon0.15_PT081H.grib2 2026-04-14 16:22 1.2M
20260414T12Z_MSC_GDPS_AirTemp_IsbL-0985_LatLon0.15_PT081H.grib2 2026-04-14 16:22 1.1M
20260414T12Z_MSC_GDPS_AirTemp_IsbL-1000_LatLon0.15_PT081H.grib2 2026-04-14 16:22 1.1M
20260414T12Z_MSC_GDPS_AirTemp_IsbL-1015_LatLon0.15_PT081H.grib2 2026-04-14 16:22 1.1M
20260414T12Z_MSC_GDPS_Albedo_Sfc_LatLon0.15_PT081H.grib2 2026-04-14 16:22 246K
20260414T12Z_MSC_GDPS_CAPE_Sfc_LatLon0.15_PT081H.grib2 2026-04-14 16:22 3.9M
20260414T12Z_MSC_GDPS_CIN_Sfc_LatLon0.15_PT081H.grib2 2026-04-14 16:22 2.9M
20260414T12Z_MSC_GDPS_CloudWater_EAtm_LatLon0.15_PT081H.grib2 2026-04-14 16:22 530K
20260414T12Z_MSC_GDPS_ConvectivePrecip-Accum_Sfc_LatLon0.15_PT081H.grib2 2026-04-14 16:22 3.1M
20260414T12Z_MSC_GDPS_DewPointDepression_AGL-2m_LatLon0.15_PT081H.grib2 2026-04-14 16:22 752K
20260414T12Z_MSC_GDPS_DewPointDepression_IsbL-0010_LatLon0.15_PT081H.grib2 2026-04-14 16:22 5.4K
20260414T12Z_MSC_GDPS_DewPointDepression_IsbL-0020_LatLon0.15_PT081H.grib2 2026-04-14 16:22 53K
20260414T12Z_MSC_GDPS_DewPointDepression_IsbL-0030_LatLon0.15_PT081H.grib2 2026-04-14 16:22 67K
20260414T12Z_MSC_GDPS_DewPointDepression_IsbL-0050_LatLon0.15_PT081H.grib2 2026-04-14 16:22 357K
20260414T12Z_MSC_GDPS_DewPointDepression_IsbL-0100_LatLon0.15_PT081H.grib2 2026-04-14 16:22 380K
20260414T12Z_MSC_GDPS_DewPointDepression_IsbL-0150_LatLon0.15_PT081H.grib2 2026-04-14 16:22 461K
20260414T12Z_MSC_GDPS_DewPointDepression_IsbL-0175_LatLon0.15_PT081H.grib2 2026-04-14 16:22 536K
20260414T12Z_MSC_GDPS_DewPointDepression_IsbL-0200_LatLon0.15_PT081H.grib2 2026-04-14 16:22 624K
20260414T12Z_MSC_GDPS_DewPointDepression_IsbL-0225_LatLon0.15_PT081H.grib2 2026-04-14 16:22 758K
20260414T12Z_MSC_GDPS_DewPointDepression_IsbL-0250_LatLon0.15_PT081H.grib2 2026-04-14 16:22 884K
20260414T12Z_MSC_GDPS_DewPointDepression_IsbL-0275_LatLon0.15_PT081H.grib2 2026-04-14 16:22 904K
20260414T12Z_MSC_GDPS_DewPointDepression_IsbL-0300_LatLon0.15_PT081H.grib2 2026-04-14 16:22 939K
20260414T12Z_MSC_GDPS_DewPointDepression_IsbL-0350_LatLon0.15_PT081H.grib2 2026-04-14 16:22 965K
20260414T12Z_MSC_GDPS_DewPointDepression_IsbL-0400_LatLon0.15_PT081H.grib2 2026-04-14 16:22 1.0M
20260414T12Z_MSC_GDPS_DewPointDepression_IsbL-0450_LatLon0.15_PT081H.grib2 2026-04-14 16:22 1.0M
20260414T12Z_MSC_GDPS_DewPointDepression_IsbL-0500_LatLon0.15_PT081H.grib2 2026-04-14 16:22 1.0M
20260414T12Z_MSC_GDPS_DewPointDepression_IsbL-0550_LatLon0.15_PT081H.grib2 2026-04-14 16:22 1.0M
20260414T12Z_MSC_GDPS_DewPointDepression_IsbL-0600_LatLon0.15_PT081H.grib2 2026-04-14 16:22 1.1M
20260414T12Z_MSC_GDPS_DewPointDepression_IsbL-0650_LatLon0.15_PT081H.grib2 2026-04-14 16:22 1.1M
20260414T12Z_MSC_GDPS_DewPointDepression_IsbL-0700_LatLon0.15_PT081H.grib2 2026-04-14 16:22 1.1M
20260414T12Z_MSC_GDPS_DewPointDepression_IsbL-0750_LatLon0.15_PT081H.grib2 2026-04-14 16:22 1.1M
20260414T12Z_MSC_GDPS_DewPointDepression_IsbL-0800_LatLon0.15_PT081H.grib2 2026-04-14 16:22 1.2M
20260414T12Z_MSC_GDPS_DewPointDepression_IsbL-0850_LatLon0.15_PT081H.grib2 2026-04-14 16:22 1.2M
20260414T12Z_MSC_GDPS_DewPointDepression_IsbL-0875_LatLon0.15_PT081H.grib2 2026-04-14 16:22 1.1M
20260414T12Z_MSC_GDPS_DewPointDepression_IsbL-0900_LatLon0.15_PT081H.grib2 2026-04-14 16:22 1.1M
20260414T12Z_MSC_GDPS_DewPointDepression_IsbL-0925_LatLon0.15_PT081H.grib2 2026-04-14 16:22 1.0M
20260414T12Z_MSC_GDPS_DewPointDepression_IsbL-0950_LatLon0.15_PT081H.grib2 2026-04-14 16:22 1.0M
20260414T12Z_MSC_GDPS_DewPointDepression_IsbL-0970_LatLon0.15_PT081H.grib2 2026-04-14 16:22 1.0M
20260414T12Z_MSC_GDPS_DewPointDepression_IsbL-0985_LatLon0.15_PT081H.grib2 2026-04-14 16:22 1.0M
20260414T12Z_MSC_GDPS_DewPointDepression_IsbL-1000_LatLon0.15_PT081H.grib2 2026-04-14 16:22 971K
20260414T12Z_MSC_GDPS_DewPointDepression_IsbL-1015_LatLon0.15_PT081H.grib2 2026-04-14 16:22 912K
20260414T12Z_MSC_GDPS_DewPoint_AGL-2m_LatLon0.15_PT081H.grib2 2026-04-14 16:22 613K
20260414T12Z_MSC_GDPS_DownwardLongwaveRadiationFlux-Accum_Sfc_LatLon0.15_PT081H.grib2 2026-04-14 16:22 687K
20260414T12Z_MSC_GDPS_DownwardShortwaveRadiationFlux-Accum_NTAtm_LatLon0.15_PT081H.grib2 2026-04-14 16:22 286K
20260414T12Z_MSC_GDPS_DownwardShortwaveRadiationFlux-Accum_Sfc_LatLon0.15_PT081H.grib2 2026-04-14 16:22 914K
20260414T12Z_MSC_GDPS_FreezingRain-Accum1h_Sfc_LatLon0.15_PT081H.grib2 2026-04-14 16:22 38K
20260414T12Z_MSC_GDPS_FreezingRain-Accum3h_Sfc_LatLon0.15_PT081H.grib2 2026-04-14 16:22 48K
20260414T12Z_MSC_GDPS_FreezingRain-Accum_Sfc_LatLon0.15_PT081H.grib2 2026-04-14 16:22 242K
20260414T12Z_MSC_GDPS_GeopotentialHeight_IsbL-0001_LatLon0.15_PT081H.grib2 2026-04-14 16:22 522K
20260414T12Z_MSC_GDPS_GeopotentialHeight_IsbL-0005_LatLon0.15_PT081H.grib2 2026-04-14 16:22 493K
20260414T12Z_MSC_GDPS_GeopotentialHeight_IsbL-0010_LatLon0.15_PT081H.grib2 2026-04-14 16:22 429K
20260414T12Z_MSC_GDPS_GeopotentialHeight_IsbL-0020_LatLon0.15_PT081H.grib2 2026-04-14 16:22 572K
20260414T12Z_MSC_GDPS_GeopotentialHeight_IsbL-0030_LatLon0.15_PT081H.grib2 2026-04-14 16:22 578K
20260414T12Z_MSC_GDPS_GeopotentialHeight_IsbL-0050_LatLon0.15_PT081H.grib2 2026-04-14 16:22 580K
20260414T12Z_MSC_GDPS_GeopotentialHeight_IsbL-0100_LatLon0.15_PT081H.grib2 2026-04-14 16:22 618K
20260414T12Z_MSC_GDPS_GeopotentialHeight_IsbL-0150_LatLon0.15_PT081H.grib2 2026-04-14 16:22 631K
20260414T12Z_MSC_GDPS_GeopotentialHeight_IsbL-0175_LatLon0.15_PT081H.grib2 2026-04-14 16:22 634K
20260414T12Z_MSC_GDPS_GeopotentialHeight_IsbL-0200_LatLon0.15_PT081H.grib2 2026-04-14 16:22 636K
20260414T12Z_MSC_GDPS_GeopotentialHeight_IsbL-0225_LatLon0.15_PT081H.grib2 2026-04-14 16:22 633K
20260414T12Z_MSC_GDPS_GeopotentialHeight_IsbL-0250_LatLon0.15_PT081H.grib2 2026-04-14 16:22 643K
20260414T12Z_MSC_GDPS_GeopotentialHeight_IsbL-0275_LatLon0.15_PT081H.grib2 2026-04-14 16:22 641K
20260414T12Z_MSC_GDPS_GeopotentialHeight_IsbL-0300_LatLon0.15_PT081H.grib2 2026-04-14 16:22 640K
20260414T12Z_MSC_GDPS_GeopotentialHeight_IsbL-0350_LatLon0.15_PT081H.grib2 2026-04-14 16:22 626K
20260414T12Z_MSC_GDPS_GeopotentialHeight_IsbL-0400_LatLon0.15_PT081H.grib2 2026-04-14 16:22 617K
20260414T12Z_MSC_GDPS_GeopotentialHeight_IsbL-0450_LatLon0.15_PT081H.grib2 2026-04-14 16:22 539K
20260414T12Z_MSC_GDPS_GeopotentialHeight_IsbL-0500_LatLon0.15_PT081H.grib2 2026-04-14 16:22 528K
20260414T12Z_MSC_GDPS_GeopotentialHeight_IsbL-0550_LatLon0.15_PT081H.grib2 2026-04-14 16:22 691K
20260414T12Z_MSC_GDPS_GeopotentialHeight_IsbL-0600_LatLon0.15_PT081H.grib2 2026-04-14 16:22 685K
20260414T12Z_MSC_GDPS_GeopotentialHeight_IsbL-0650_LatLon0.15_PT081H.grib2 2026-04-14 16:22 683K
20260414T12Z_MSC_GDPS_GeopotentialHeight_IsbL-0700_LatLon0.15_PT081H.grib2 2026-04-14 16:22 680K
20260414T12Z_MSC_GDPS_GeopotentialHeight_IsbL-0750_LatLon0.15_PT081H.grib2 2026-04-14 16:22 685K
20260414T12Z_MSC_GDPS_GeopotentialHeight_IsbL-0800_LatLon0.15_PT081H.grib2 2026-04-14 16:22 698K
20260414T12Z_MSC_GDPS_GeopotentialHeight_IsbL-0850_LatLon0.15_PT081H.grib2 2026-04-14 16:22 706K
20260414T12Z_MSC_GDPS_GeopotentialHeight_IsbL-0875_LatLon0.15_PT081H.grib2 2026-04-14 16:22 713K
20260414T12Z_MSC_GDPS_GeopotentialHeight_IsbL-0900_LatLon0.15_PT081H.grib2 2026-04-14 16:22 719K
20260414T12Z_MSC_GDPS_GeopotentialHeight_IsbL-0925_LatLon0.15_PT081H.grib2 2026-04-14 16:22 727K
20260414T12Z_MSC_GDPS_GeopotentialHeight_IsbL-0950_LatLon0.15_PT081H.grib2 2026-04-14 16:22 736K
20260414T12Z_MSC_GDPS_GeopotentialHeight_IsbL-0970_LatLon0.15_PT081H.grib2 2026-04-14 16:22 749K
20260414T12Z_MSC_GDPS_GeopotentialHeight_IsbL-0985_LatLon0.15_PT081H.grib2 2026-04-14 16:22 765K
20260414T12Z_MSC_GDPS_GeopotentialHeight_IsbL-1000_LatLon0.15_PT081H.grib2 2026-04-14 16:22 786K
20260414T12Z_MSC_GDPS_GeopotentialHeight_IsbL-1015_LatLon0.15_PT081H.grib2 2026-04-14 16:22 808K
20260414T12Z_MSC_GDPS_Humidex_Sfc_LatLon0.15_PT081H.grib2 2026-04-14 16:22 5.3M
20260414T12Z_MSC_GDPS_IcePellets-Accum1h_Sfc_LatLon0.15_PT081H.grib2 2026-04-14 16:22 16K
20260414T12Z_MSC_GDPS_IcePellets-Accum3h_Sfc_LatLon0.15_PT081H.grib2 2026-04-14 16:22 18K
20260414T12Z_MSC_GDPS_IcePellets-Accum_Sfc_LatLon0.15_PT081H.grib2 2026-04-14 16:22 100K
20260414T12Z_MSC_GDPS_KIndex_Sfc_LatLon0.15_PT081H.grib2 2026-04-14 16:22 6.5M
20260414T12Z_MSC_GDPS_LatentHeatNetFlux_Sfc_LatLon0.15_PT081H.grib2 2026-04-14 16:22 641K
20260414T12Z_MSC_GDPS_LiftedIndex-MU-VT_IsbL-0500_LatLon0.15_PT081H.grib2 2026-04-14 16:22 5.4M
20260414T12Z_MSC_GDPS_NetLongwaveRadiationFlux-Accum_Sfc_LatLon0.15_PT081H.grib2 2026-04-14 16:22 914K
20260414T12Z_MSC_GDPS_NetShortwaveRadiationFlux-Accum_Sfc_LatLon0.15_PT081H.grib2 2026-04-14 16:22 904K
20260414T12Z_MSC_GDPS_O3MixingRatio_LatLon0.15_PT081H.grib2 2026-04-14 16:56 2.3M
20260414T12Z_MSC_GDPS_O3_EAtm_LatLon0.15_PT081H.grib2 2026-04-14 16:56 2.1M
20260414T12Z_MSC_GDPS_PlanetaryBoundaryLayerHeight_Sfc_LatLon0.15_PT081H.grib2 2026-04-14 16:22 2.4M
20260414T12Z_MSC_GDPS_Precip-Accum1h_Sfc_LatLon0.15_PT081H.grib2 2026-04-14 16:22 3.2M
20260414T12Z_MSC_GDPS_Precip-Accum3h_Sfc_LatLon0.15_PT081H.grib2 2026-04-14 16:22 3.5M
20260414T12Z_MSC_GDPS_Precip-Accum_Sfc_LatLon0.15_PT081H.grib2 2026-04-14 16:22 4.8M
20260414T12Z_MSC_GDPS_PrecipRate_Sfc_LatLon0.15_PT081H.grib2 2026-04-14 16:22 2.9M
20260414T12Z_MSC_GDPS_PrecipType-Instant_Sfc_LatLon0.15_PT081H.grib2 2026-04-14 16:22 1.4M
20260414T12Z_MSC_GDPS_Pressure_MSL_LatLon0.15_PT081H.grib2 2026-04-14 16:22 726K
20260414T12Z_MSC_GDPS_Pressure_PVU-1.5_LatLon0.15_PT081H.grib2 2026-04-14 16:22 5.8M
20260414T12Z_MSC_GDPS_Pressure_PVU-1_LatLon0.15_PT081H.grib2 2026-04-14 16:22 6.0M
20260414T12Z_MSC_GDPS_Pressure_PVU-2_LatLon0.15_PT081H.grib2 2026-04-14 16:22 5.6M
20260414T12Z_MSC_GDPS_Pressure_Sfc_LatLon0.15_PT081H.grib2 2026-04-14 16:22 1.1M
20260414T12Z_MSC_GDPS_RadiativeTemp_Sfc_LatLon0.15_PT081H.grib2 2026-04-14 16:22 667K
20260414T12Z_MSC_GDPS_Rain-Accum1h_Sfc_LatLon0.15_PT081H.grib2 2026-04-14 16:22 1.6M
20260414T12Z_MSC_GDPS_Rain-Accum3h_Sfc_LatLon0.15_PT081H.grib2 2026-04-14 16:22 1.8M
20260414T12Z_MSC_GDPS_Rain-Accum_Sfc_LatLon0.15_PT081H.grib2 2026-04-14 16:22 3.6M
20260414T12Z_MSC_GDPS_RelativeHumidity_AGL-2m_LatLon0.15_PT081H.grib2 2026-04-14 16:22 1.1M
20260414T12Z_MSC_GDPS_RelativeHumidity_IsbL-0010_LatLon0.15_PT081H.grib2 2026-04-14 16:22 231K
20260414T12Z_MSC_GDPS_RelativeHumidity_IsbL-0020_LatLon0.15_PT081H.grib2 2026-04-14 16:22 374K
20260414T12Z_MSC_GDPS_RelativeHumidity_IsbL-0030_LatLon0.15_PT081H.grib2 2026-04-14 16:22 380K
20260414T12Z_MSC_GDPS_RelativeHumidity_IsbL-0050_LatLon0.15_PT081H.grib2 2026-04-14 16:22 498K
20260414T12Z_MSC_GDPS_RelativeHumidity_IsbL-0100_LatLon0.15_PT081H.grib2 2026-04-14 16:22 490K
20260414T12Z_MSC_GDPS_RelativeHumidity_IsbL-0150_LatLon0.15_PT081H.grib2 2026-04-14 16:22 658K
20260414T12Z_MSC_GDPS_RelativeHumidity_IsbL-0175_LatLon0.15_PT081H.grib2 2026-04-14 16:22 785K
20260414T12Z_MSC_GDPS_RelativeHumidity_IsbL-0200_LatLon0.15_PT081H.grib2 2026-04-14 16:22 692K
20260414T12Z_MSC_GDPS_RelativeHumidity_IsbL-0225_LatLon0.15_PT081H.grib2 2026-04-14 16:22 784K
20260414T12Z_MSC_GDPS_RelativeHumidity_IsbL-0250_LatLon0.15_PT081H.grib2 2026-04-14 16:22 873K
20260414T12Z_MSC_GDPS_RelativeHumidity_IsbL-0275_LatLon0.15_PT081H.grib2 2026-04-14 16:22 900K
20260414T12Z_MSC_GDPS_RelativeHumidity_IsbL-0300_LatLon0.15_PT081H.grib2 2026-04-14 16:22 943K
20260414T12Z_MSC_GDPS_RelativeHumidity_IsbL-0350_LatLon0.15_PT081H.grib2 2026-04-14 16:22 963K
20260414T12Z_MSC_GDPS_RelativeHumidity_IsbL-0400_LatLon0.15_PT081H.grib2 2026-04-14 16:22 1.0M
20260414T12Z_MSC_GDPS_RelativeHumidity_IsbL-0450_LatLon0.15_PT081H.grib2 2026-04-14 16:22 1.0M
20260414T12Z_MSC_GDPS_RelativeHumidity_IsbL-0500_LatLon0.15_PT081H.grib2 2026-04-14 16:22 1.0M
20260414T12Z_MSC_GDPS_RelativeHumidity_IsbL-0550_LatLon0.15_PT081H.grib2 2026-04-14 16:22 1.1M
20260414T12Z_MSC_GDPS_RelativeHumidity_IsbL-0600_LatLon0.15_PT081H.grib2 2026-04-14 16:22 1.1M
20260414T12Z_MSC_GDPS_RelativeHumidity_IsbL-0650_LatLon0.15_PT081H.grib2 2026-04-14 16:22 1.1M
20260414T12Z_MSC_GDPS_RelativeHumidity_IsbL-0700_LatLon0.15_PT081H.grib2 2026-04-14 16:22 1.1M
20260414T12Z_MSC_GDPS_RelativeHumidity_IsbL-0750_LatLon0.15_PT081H.grib2 2026-04-14 16:22 1.2M
20260414T12Z_MSC_GDPS_RelativeHumidity_IsbL-0800_LatLon0.15_PT081H.grib2 2026-04-14 16:22 1.2M
20260414T12Z_MSC_GDPS_RelativeHumidity_IsbL-0850_LatLon0.15_PT081H.grib2 2026-04-14 16:22 1.3M
20260414T12Z_MSC_GDPS_RelativeHumidity_IsbL-0875_LatLon0.15_PT081H.grib2 2026-04-14 16:22 1.3M
20260414T12Z_MSC_GDPS_RelativeHumidity_IsbL-0900_LatLon0.15_PT081H.grib2 2026-04-14 16:22 1.2M
20260414T12Z_MSC_GDPS_RelativeHumidity_IsbL-0925_LatLon0.15_PT081H.grib2 2026-04-14 16:22 1.2M
20260414T12Z_MSC_GDPS_RelativeHumidity_IsbL-0950_LatLon0.15_PT081H.grib2 2026-04-14 16:22 1.2M
20260414T12Z_MSC_GDPS_RelativeHumidity_IsbL-0970_LatLon0.15_PT081H.grib2 2026-04-14 16:22 1.2M
20260414T12Z_MSC_GDPS_RelativeHumidity_IsbL-0985_LatLon0.15_PT081H.grib2 2026-04-14 16:22 1.2M
20260414T12Z_MSC_GDPS_RelativeHumidity_IsbL-1000_LatLon0.15_PT081H.grib2 2026-04-14 16:22 1.1M
20260414T12Z_MSC_GDPS_RelativeHumidity_IsbL-1015_LatLon0.15_PT081H.grib2 2026-04-14 16:22 1.0M
20260414T12Z_MSC_GDPS_RelativeVorticity_IsbL-0200_LatLon0.15_PT081H.grib2 2026-04-14 16:22 1.5M
20260414T12Z_MSC_GDPS_RelativeVorticity_IsbL-0250_LatLon0.15_PT081H.grib2 2026-04-14 16:22 1.3M
20260414T12Z_MSC_GDPS_RelativeVorticity_IsbL-0500_LatLon0.15_PT081H.grib2 2026-04-14 16:22 1.4M
20260414T12Z_MSC_GDPS_RelativeVorticity_IsbL-0700_LatLon0.15_PT081H.grib2 2026-04-14 16:22 1.3M
20260414T12Z_MSC_GDPS_RelativeVorticity_IsbL-0850_LatLon0.15_PT081H.grib2 2026-04-14 16:22 1.6M
20260414T12Z_MSC_GDPS_Runoff-Accum_Sfc_LatLon0.15_PT081H.grib2 2026-04-14 16:22 96K
20260414T12Z_MSC_GDPS_SensibleHeatNetFlux_Sfc_LatLon0.15_PT081H.grib2 2026-04-14 16:22 439K
20260414T12Z_MSC_GDPS_ShowalterIndex_IsbL-0500_LatLon0.15_PT081H.grib2 2026-04-14 16:22 6.2M
20260414T12Z_MSC_GDPS_Snow-Accum1h_Sfc_LatLon0.15_PT081H.grib2 2026-04-14 16:22 1.2M
20260414T12Z_MSC_GDPS_Snow-Accum3h_Sfc_LatLon0.15_PT081H.grib2 2026-04-14 16:22 1.1M
20260414T12Z_MSC_GDPS_Snow-Accum_Sfc_LatLon0.15_PT081H.grib2 2026-04-14 16:22 1.9M
20260414T12Z_MSC_GDPS_SnowDensity_Sfc_LatLon0.15_PT081H.grib2 2026-04-14 16:22 267K
20260414T12Z_MSC_GDPS_SnowDepth_Sfc_LatLon0.15_PT081H.grib2 2026-04-14 16:22 1.8M
20260414T12Z_MSC_GDPS_SoilTemp_DBS-0to10cm_LatLon0.15_PT081H.grib2 2026-04-14 16:22 509K
20260414T12Z_MSC_GDPS_SoilTemp_Sfc_LatLon0.15_PT081H.grib2 2026-04-14 16:22 581K
20260414T12Z_MSC_GDPS_SoilVolumetricIceContent_Sfc_LatLon0.15_PT081H.grib2 2026-04-14 16:22 223K
20260414T12Z_MSC_GDPS_SoilVolumetricWaterContent_DBS-0to10cm_LatLon0.15_PT081H.grib2 2026-04-14 16:22 552K
20260414T12Z_MSC_GDPS_SoilVolumetricWaterContent_DBS-0to1cm_LatLon0.15_PT081H.grib2 2026-04-14 16:22 652K
20260414T12Z_MSC_GDPS_SpecificHumidity_AGL-120m_LatLon0.15_PT081H.grib2 2026-04-14 16:22 1.1M
20260414T12Z_MSC_GDPS_SpecificHumidity_AGL-2m_LatLon0.15_PT081H.grib2 2026-04-14 16:22 1.2M
20260414T12Z_MSC_GDPS_SpecificHumidity_AGL-40m_LatLon0.15_PT081H.grib2 2026-04-14 16:22 1.1M
20260414T12Z_MSC_GDPS_SpecificHumidity_AGL-80m_LatLon0.15_PT081H.grib2 2026-04-14 16:22 1.1M
20260414T12Z_MSC_GDPS_SpecificHumidity_IsbL-0001_LatLon0.15_PT081H.grib2 2026-04-14 16:22 1.2M
20260414T12Z_MSC_GDPS_SpecificHumidity_IsbL-0005_LatLon0.15_PT081H.grib2 2026-04-14 16:22 1.1M
20260414T12Z_MSC_GDPS_SpecificHumidity_IsbL-0010_LatLon0.15_PT081H.grib2 2026-04-14 16:22 1.3M
20260414T12Z_MSC_GDPS_SpecificHumidity_IsbL-0020_LatLon0.15_PT081H.grib2 2026-04-14 16:22 1.3M
20260414T12Z_MSC_GDPS_SpecificHumidity_IsbL-0030_LatLon0.15_PT081H.grib2 2026-04-14 16:22 1.3M
20260414T12Z_MSC_GDPS_SpecificHumidity_IsbL-0050_LatLon0.15_PT081H.grib2 2026-04-14 16:22 1.3M
20260414T12Z_MSC_GDPS_SpecificHumidity_IsbL-0100_LatLon0.15_PT081H.grib2 2026-04-14 16:22 1.3M
20260414T12Z_MSC_GDPS_SpecificHumidity_IsbL-0150_LatLon0.15_PT081H.grib2 2026-04-14 16:22 1.3M
20260414T12Z_MSC_GDPS_SpecificHumidity_IsbL-0175_LatLon0.15_PT081H.grib2 2026-04-14 16:22 1.3M
20260414T12Z_MSC_GDPS_SpecificHumidity_IsbL-0200_LatLon0.15_PT081H.grib2 2026-04-14 16:22 1.3M
20260414T12Z_MSC_GDPS_SpecificHumidity_IsbL-0225_LatLon0.15_PT081H.grib2 2026-04-14 16:22 1.3M
20260414T12Z_MSC_GDPS_SpecificHumidity_IsbL-0250_LatLon0.15_PT081H.grib2 2026-04-14 16:22 1.2M
20260414T12Z_MSC_GDPS_SpecificHumidity_IsbL-0275_LatLon0.15_PT081H.grib2 2026-04-14 16:22 1.3M
20260414T12Z_MSC_GDPS_SpecificHumidity_IsbL-0300_LatLon0.15_PT081H.grib2 2026-04-14 16:22 1.2M
20260414T12Z_MSC_GDPS_SpecificHumidity_IsbL-0350_LatLon0.15_PT081H.grib2 2026-04-14 16:22 1.2M
20260414T12Z_MSC_GDPS_SpecificHumidity_IsbL-0400_LatLon0.15_PT081H.grib2 2026-04-14 16:22 1.5M
20260414T12Z_MSC_GDPS_SpecificHumidity_IsbL-0450_LatLon0.15_PT081H.grib2 2026-04-14 16:22 1.3M
20260414T12Z_MSC_GDPS_SpecificHumidity_IsbL-0500_LatLon0.15_PT081H.grib2 2026-04-14 16:22 1.4M
20260414T12Z_MSC_GDPS_SpecificHumidity_IsbL-0550_LatLon0.15_PT081H.grib2 2026-04-14 16:22 1.6M
20260414T12Z_MSC_GDPS_SpecificHumidity_IsbL-0600_LatLon0.15_PT081H.grib2 2026-04-14 16:22 1.4M
20260414T12Z_MSC_GDPS_SpecificHumidity_IsbL-0650_LatLon0.15_PT081H.grib2 2026-04-14 16:22 1.5M
20260414T12Z_MSC_GDPS_SpecificHumidity_IsbL-0700_LatLon0.15_PT081H.grib2 2026-04-14 16:22 1.6M
20260414T12Z_MSC_GDPS_SpecificHumidity_IsbL-0750_LatLon0.15_PT081H.grib2 2026-04-14 16:22 1.7M
20260414T12Z_MSC_GDPS_SpecificHumidity_IsbL-0800_LatLon0.15_PT081H.grib2 2026-04-14 16:22 1.8M
20260414T12Z_MSC_GDPS_SpecificHumidity_IsbL-0850_LatLon0.15_PT081H.grib2 2026-04-14 16:22 1.9M
20260414T12Z_MSC_GDPS_SpecificHumidity_IsbL-0875_LatLon0.15_PT081H.grib2 2026-04-14 16:22 1.9M
20260414T12Z_MSC_GDPS_SpecificHumidity_IsbL-0900_LatLon0.15_PT081H.grib2 2026-04-14 16:22 1.9M
20260414T12Z_MSC_GDPS_SpecificHumidity_IsbL-0925_LatLon0.15_PT081H.grib2 2026-04-14 16:22 1.9M
20260414T12Z_MSC_GDPS_SpecificHumidity_IsbL-0950_LatLon0.15_PT081H.grib2 2026-04-14 16:22 1.5M
20260414T12Z_MSC_GDPS_SpecificHumidity_IsbL-0970_LatLon0.15_PT081H.grib2 2026-04-14 16:22 1.5M
20260414T12Z_MSC_GDPS_SpecificHumidity_IsbL-0985_LatLon0.15_PT081H.grib2 2026-04-14 16:22 1.5M
20260414T12Z_MSC_GDPS_SpecificHumidity_IsbL-1000_LatLon0.15_PT081H.grib2 2026-04-14 16:22 1.5M
20260414T12Z_MSC_GDPS_SpecificHumidity_IsbL-1015_LatLon0.15_PT081H.grib2 2026-04-14 16:22 1.4M
20260414T12Z_MSC_GDPS_SpecificHumidity_Sfc_LatLon0.15_PT081H.grib2 2026-04-14 16:22 626K
20260414T12Z_MSC_GDPS_Thickness_IsbL-0850to0700_LatLon0.15_PT081H.grib2 2026-04-14 16:22 468K
20260414T12Z_MSC_GDPS_Thickness_IsbL-1000to0500_LatLon0.15_PT081H.grib2 2026-04-14 16:22 375K
20260414T12Z_MSC_GDPS_Thickness_IsbL-1000to0850_LatLon0.15_PT081H.grib2 2026-04-14 16:22 491K
20260414T12Z_MSC_GDPS_TotalCloudCover_Sfc_LatLon0.15_PT081H.grib2 2026-04-14 16:22 822K
20260414T12Z_MSC_GDPS_TotalTotalsIndex_Sfc_LatLon0.15_PT081H.grib2 2026-04-14 16:22 6.2M
20260414T12Z_MSC_GDPS_UVIndex-ClearSky_Sfc_LatLon0.15_PT081H.grib2 2026-04-14 16:56 1.0M
20260414T12Z_MSC_GDPS_UVIndex_Sfc_LatLon0.15_PT081H.grib2 2026-04-14 16:56 1.5M
20260414T12Z_MSC_GDPS_UpwardLongwaveRadiationFlux_NTAtm_LatLon0.15_PT081H.grib2 2026-04-14 16:22 828K
20260414T12Z_MSC_GDPS_VerticalVelocity_IsbL-0200_LatLon0.15_PT081H.grib2 2026-04-14 16:22 1.1M
20260414T12Z_MSC_GDPS_VerticalVelocity_IsbL-0250_LatLon0.15_PT081H.grib2 2026-04-14 16:22 1.0M
20260414T12Z_MSC_GDPS_VerticalVelocity_IsbL-0500_LatLon0.15_PT081H.grib2 2026-04-14 16:22 1.3M
20260414T12Z_MSC_GDPS_VerticalVelocity_IsbL-0600_LatLon0.15_PT081H.grib2 2026-04-14 16:22 1.3M
20260414T12Z_MSC_GDPS_VerticalVelocity_IsbL-0700_LatLon0.15_PT081H.grib2 2026-04-14 16:22 1.4M
20260414T12Z_MSC_GDPS_VerticalVelocity_IsbL-0850_LatLon0.15_PT081H.grib2 2026-04-14 16:22 1.3M
20260414T12Z_MSC_GDPS_WindChill_Sfc_LatLon0.15_PT081H.grib2 2026-04-14 16:22 5.3M
20260414T12Z_MSC_GDPS_WindDir_AGL-10m_LatLon0.15_PT081H.grib2 2026-04-14 16:22 1.4M
20260414T12Z_MSC_GDPS_WindDir_AGL-120m_LatLon0.15_PT081H.grib2 2026-04-14 16:22 1.4M
20260414T12Z_MSC_GDPS_WindDir_AGL-40m_LatLon0.15_PT081H.grib2 2026-04-14 16:22 1.4M
20260414T12Z_MSC_GDPS_WindDir_AGL-80m_LatLon0.15_PT081H.grib2 2026-04-14 16:22 1.4M
20260414T12Z_MSC_GDPS_WindDir_IsbL-0001_LatLon0.15_PT081H.grib2 2026-04-14 16:22 641K
20260414T12Z_MSC_GDPS_WindDir_IsbL-0005_LatLon0.15_PT081H.grib2 2026-04-14 16:22 792K
20260414T12Z_MSC_GDPS_WindDir_IsbL-0010_LatLon0.15_PT081H.grib2 2026-04-14 16:22 847K
20260414T12Z_MSC_GDPS_WindDir_IsbL-0020_LatLon0.15_PT081H.grib2 2026-04-14 16:22 916K
20260414T12Z_MSC_GDPS_WindDir_IsbL-0030_LatLon0.15_PT081H.grib2 2026-04-14 16:22 889K
20260414T12Z_MSC_GDPS_WindDir_IsbL-0050_LatLon0.15_PT081H.grib2 2026-04-14 16:22 952K
20260414T12Z_MSC_GDPS_WindDir_IsbL-0100_LatLon0.15_PT081H.grib2 2026-04-14 16:22 1.0M
20260414T12Z_MSC_GDPS_WindDir_IsbL-0150_LatLon0.15_PT081H.grib2 2026-04-14 16:22 1.0M
20260414T12Z_MSC_GDPS_WindDir_IsbL-0175_LatLon0.15_PT081H.grib2 2026-04-14 16:22 1.0M
20260414T12Z_MSC_GDPS_WindDir_IsbL-0200_LatLon0.15_PT081H.grib2 2026-04-14 16:22 1.1M
20260414T12Z_MSC_GDPS_WindDir_IsbL-0225_LatLon0.15_PT081H.grib2 2026-04-14 16:22 1.1M
20260414T12Z_MSC_GDPS_WindDir_IsbL-0250_LatLon0.15_PT081H.grib2 2026-04-14 16:22 1.1M
20260414T12Z_MSC_GDPS_WindDir_IsbL-0275_LatLon0.15_PT081H.grib2 2026-04-14 16:22 1.2M
20260414T12Z_MSC_GDPS_WindDir_IsbL-0300_LatLon0.15_PT081H.grib2 2026-04-14 16:22 1.2M
20260414T12Z_MSC_GDPS_WindDir_IsbL-0350_LatLon0.15_PT081H.grib2 2026-04-14 16:22 1.2M
20260414T12Z_MSC_GDPS_WindDir_IsbL-0400_LatLon0.15_PT081H.grib2 2026-04-14 16:22 1.3M
20260414T12Z_MSC_GDPS_WindDir_IsbL-0450_LatLon0.15_PT081H.grib2 2026-04-14 16:22 1.3M
20260414T12Z_MSC_GDPS_WindDir_IsbL-0500_LatLon0.15_PT081H.grib2 2026-04-14 16:22 1.4M
20260414T12Z_MSC_GDPS_WindDir_IsbL-0550_LatLon0.15_PT081H.grib2 2026-04-14 16:22 1.4M
20260414T12Z_MSC_GDPS_WindDir_IsbL-0600_LatLon0.15_PT081H.grib2 2026-04-14 16:22 1.5M
20260414T12Z_MSC_GDPS_WindDir_IsbL-0650_LatLon0.15_PT081H.grib2 2026-04-14 16:22 1.5M
20260414T12Z_MSC_GDPS_WindDir_IsbL-0700_LatLon0.15_PT081H.grib2 2026-04-14 16:22 1.6M
20260414T12Z_MSC_GDPS_WindDir_IsbL-0750_LatLon0.15_PT081H.grib2 2026-04-14 16:22 1.7M
20260414T12Z_MSC_GDPS_WindDir_IsbL-0800_LatLon0.15_PT081H.grib2 2026-04-14 16:22 1.8M
20260414T12Z_MSC_GDPS_WindDir_IsbL-0850_LatLon0.15_PT081H.grib2 2026-04-14 16:22 2.0M
20260414T12Z_MSC_GDPS_WindDir_IsbL-0875_LatLon0.15_PT081H.grib2 2026-04-14 16:22 2.0M
20260414T12Z_MSC_GDPS_WindDir_IsbL-0900_LatLon0.15_PT081H.grib2 2026-04-14 16:22 2.0M
20260414T12Z_MSC_GDPS_WindDir_IsbL-0925_LatLon0.15_PT081H.grib2 2026-04-14 16:22 2.0M
20260414T12Z_MSC_GDPS_WindDir_IsbL-0950_LatLon0.15_PT081H.grib2 2026-04-14 16:22 2.0M
20260414T12Z_MSC_GDPS_WindDir_IsbL-0970_LatLon0.15_PT081H.grib2 2026-04-14 16:22 2.0M
20260414T12Z_MSC_GDPS_WindDir_IsbL-0985_LatLon0.15_PT081H.grib2 2026-04-14 16:22 2.1M
20260414T12Z_MSC_GDPS_WindDir_IsbL-1000_LatLon0.15_PT081H.grib2 2026-04-14 16:22 2.1M
20260414T12Z_MSC_GDPS_WindDir_IsbL-1015_LatLon0.15_PT081H.grib2 2026-04-14 16:22 2.1M
20260414T12Z_MSC_GDPS_WindGust-Max_AGL-10m_LatLon0.15_PT081H.grib2 2026-04-14 16:22 2.2M
20260414T12Z_MSC_GDPS_WindGust-Min_AGL-10m_LatLon0.15_PT081H.grib2 2026-04-14 16:22 2.2M
20260414T12Z_MSC_GDPS_WindGust_AGL-10m_LatLon0.15_PT081H.grib2 2026-04-14 16:22 2.2M
20260414T12Z_MSC_GDPS_WindSpeed_AGL-10m_LatLon0.15_PT081H.grib2 2026-04-14 16:22 1.1M
20260414T12Z_MSC_GDPS_WindSpeed_AGL-120m_LatLon0.15_PT081H.grib2 2026-04-14 16:22 1.3M
20260414T12Z_MSC_GDPS_WindSpeed_AGL-40m_LatLon0.15_PT081H.grib2 2026-04-14 16:22 1.2M
20260414T12Z_MSC_GDPS_WindSpeed_AGL-80m_LatLon0.15_PT081H.grib2 2026-04-14 16:22 1.3M
20260414T12Z_MSC_GDPS_WindSpeed_IsbL-0001_LatLon0.15_PT081H.grib2 2026-04-14 16:22 630K
20260414T12Z_MSC_GDPS_WindSpeed_IsbL-0005_LatLon0.15_PT081H.grib2 2026-04-14 16:22 686K
20260414T12Z_MSC_GDPS_WindSpeed_IsbL-0010_LatLon0.15_PT081H.grib2 2026-04-14 16:22 623K
20260414T12Z_MSC_GDPS_WindSpeed_IsbL-0020_LatLon0.15_PT081H.grib2 2026-04-14 16:22 670K
20260414T12Z_MSC_GDPS_WindSpeed_IsbL-0030_LatLon0.15_PT081H.grib2 2026-04-14 16:22 860K
20260414T12Z_MSC_GDPS_WindSpeed_IsbL-0050_LatLon0.15_PT081H.grib2 2026-04-14 16:22 1.0M
20260414T12Z_MSC_GDPS_WindSpeed_IsbL-0100_LatLon0.15_PT081H.grib2 2026-04-14 16:22 1.1M
20260414T12Z_MSC_GDPS_WindSpeed_IsbL-0150_LatLon0.15_PT081H.grib2 2026-04-14 16:22 1.0M
20260414T12Z_MSC_GDPS_WindSpeed_IsbL-0175_LatLon0.15_PT081H.grib2 2026-04-14 16:22 1.0M
20260414T12Z_MSC_GDPS_WindSpeed_IsbL-0200_LatLon0.15_PT081H.grib2 2026-04-14 16:22 1.1M
20260414T12Z_MSC_GDPS_WindSpeed_IsbL-0225_LatLon0.15_PT081H.grib2 2026-04-14 16:22 1.1M
20260414T12Z_MSC_GDPS_WindSpeed_IsbL-0250_LatLon0.15_PT081H.grib2 2026-04-14 16:22 1.1M
20260414T12Z_MSC_GDPS_WindSpeed_IsbL-0275_LatLon0.15_PT081H.grib2 2026-04-14 16:22 1.1M
20260414T12Z_MSC_GDPS_WindSpeed_IsbL-0300_LatLon0.15_PT081H.grib2 2026-04-14 16:22 1.1M
20260414T12Z_MSC_GDPS_WindSpeed_IsbL-0350_LatLon0.15_PT081H.grib2 2026-04-14 16:22 1.1M
20260414T12Z_MSC_GDPS_WindSpeed_IsbL-0400_LatLon0.15_PT081H.grib2 2026-04-14 16:22 1.1M
20260414T12Z_MSC_GDPS_WindSpeed_IsbL-0450_LatLon0.15_PT081H.grib2 2026-04-14 16:22 1.1M
20260414T12Z_MSC_GDPS_WindSpeed_IsbL-0500_LatLon0.15_PT081H.grib2 2026-04-14 16:22 1.1M
20260414T12Z_MSC_GDPS_WindSpeed_IsbL-0550_LatLon0.15_PT081H.grib2 2026-04-14 16:22 1.1M
20260414T12Z_MSC_GDPS_WindSpeed_IsbL-0600_LatLon0.15_PT081H.grib2 2026-04-14 16:22 1.4M
20260414T12Z_MSC_GDPS_WindSpeed_IsbL-0650_LatLon0.15_PT081H.grib2 2026-04-14 16:22 1.4M
20260414T12Z_MSC_GDPS_WindSpeed_IsbL-0700_LatLon0.15_PT081H.grib2 2026-04-14 16:22 1.5M
20260414T12Z_MSC_GDPS_WindSpeed_IsbL-0750_LatLon0.15_PT081H.grib2 2026-04-14 16:22 1.5M
20260414T12Z_MSC_GDPS_WindSpeed_IsbL-0800_LatLon0.15_PT081H.grib2 2026-04-14 16:22 1.6M
20260414T12Z_MSC_GDPS_WindSpeed_IsbL-0850_LatLon0.15_PT081H.grib2 2026-04-14 16:22 1.7M
20260414T12Z_MSC_GDPS_WindSpeed_IsbL-0875_LatLon0.15_PT081H.grib2 2026-04-14 16:22 1.8M
20260414T12Z_MSC_GDPS_WindSpeed_IsbL-0900_LatLon0.15_PT081H.grib2 2026-04-14 16:22 1.8M
20260414T12Z_MSC_GDPS_WindSpeed_IsbL-0925_LatLon0.15_PT081H.grib2 2026-04-14 16:22 1.8M
20260414T12Z_MSC_GDPS_WindSpeed_IsbL-0950_LatLon0.15_PT081H.grib2 2026-04-14 16:22 1.9M
20260414T12Z_MSC_GDPS_WindSpeed_IsbL-0970_LatLon0.15_PT081H.grib2 2026-04-14 16:22 1.9M
20260414T12Z_MSC_GDPS_WindSpeed_IsbL-0985_LatLon0.15_PT081H.grib2 2026-04-14 16:22 1.9M
20260414T12Z_MSC_GDPS_WindSpeed_IsbL-1000_LatLon0.15_PT081H.grib2 2026-04-14 16:22 1.8M
20260414T12Z_MSC_GDPS_WindSpeed_IsbL-1015_LatLon0.15_PT081H.grib2 2026-04-14 16:22 1.8M
20260414T12Z_MSC_GDPS_WindU_AGL-10m_LatLon0.15_PT081H.grib2 2026-04-14 16:22 1.3M
20260414T12Z_MSC_GDPS_WindU_AGL-120m_LatLon0.15_PT081H.grib2 2026-04-14 16:22 1.0M
20260414T12Z_MSC_GDPS_WindU_AGL-40m_LatLon0.15_PT081H.grib2 2026-04-14 16:22 970K
20260414T12Z_MSC_GDPS_WindU_AGL-80m_LatLon0.15_PT081H.grib2 2026-04-14 16:22 1.0M
20260414T12Z_MSC_GDPS_WindU_IsbL-0001_LatLon0.15_PT081H.grib2 2026-04-14 16:22 493K
20260414T12Z_MSC_GDPS_WindU_IsbL-0005_LatLon0.15_PT081H.grib2 2026-04-14 16:22 684K
20260414T12Z_MSC_GDPS_WindU_IsbL-0010_LatLon0.15_PT081H.grib2 2026-04-14 16:22 698K
20260414T12Z_MSC_GDPS_WindU_IsbL-0020_LatLon0.15_PT081H.grib2 2026-04-14 16:22 737K
20260414T12Z_MSC_GDPS_WindU_IsbL-0030_LatLon0.15_PT081H.grib2 2026-04-14 16:22 735K
20260414T12Z_MSC_GDPS_WindU_IsbL-0050_LatLon0.15_PT081H.grib2 2026-04-14 16:22 707K
20260414T12Z_MSC_GDPS_WindU_IsbL-0100_LatLon0.15_PT081H.grib2 2026-04-14 16:22 871K
20260414T12Z_MSC_GDPS_WindU_IsbL-0150_LatLon0.15_PT081H.grib2 2026-04-14 16:22 1.0M
20260414T12Z_MSC_GDPS_WindU_IsbL-0175_LatLon0.15_PT081H.grib2 2026-04-14 16:22 1.0M
20260414T12Z_MSC_GDPS_WindU_IsbL-0200_LatLon0.15_PT081H.grib2 2026-04-14 16:22 1.0M
20260414T12Z_MSC_GDPS_WindU_IsbL-0225_LatLon0.15_PT081H.grib2 2026-04-14 16:22 1.1M
20260414T12Z_MSC_GDPS_WindU_IsbL-0250_LatLon0.15_PT081H.grib2 2026-04-14 16:22 1.1M
20260414T12Z_MSC_GDPS_WindU_IsbL-0275_LatLon0.15_PT081H.grib2 2026-04-14 16:22 1.1M
20260414T12Z_MSC_GDPS_WindU_IsbL-0300_LatLon0.15_PT081H.grib2 2026-04-14 16:22 876K
20260414T12Z_MSC_GDPS_WindU_IsbL-0350_LatLon0.15_PT081H.grib2 2026-04-14 16:22 888K
20260414T12Z_MSC_GDPS_WindU_IsbL-0400_LatLon0.15_PT081H.grib2 2026-04-14 16:22 886K
20260414T12Z_MSC_GDPS_WindU_IsbL-0450_LatLon0.15_PT081H.grib2 2026-04-14 16:22 1.1M
20260414T12Z_MSC_GDPS_WindU_IsbL-0500_LatLon0.15_PT081H.grib2 2026-04-14 16:22 1.1M
20260414T12Z_MSC_GDPS_WindU_IsbL-0550_LatLon0.15_PT081H.grib2 2026-04-14 16:22 1.1M
20260414T12Z_MSC_GDPS_WindU_IsbL-0600_LatLon0.15_PT081H.grib2 2026-04-14 16:22 1.1M
20260414T12Z_MSC_GDPS_WindU_IsbL-0650_LatLon0.15_PT081H.grib2 2026-04-14 16:22 1.2M
20260414T12Z_MSC_GDPS_WindU_IsbL-0700_LatLon0.15_PT081H.grib2 2026-04-14 16:22 1.2M
20260414T12Z_MSC_GDPS_WindU_IsbL-0750_LatLon0.15_PT081H.grib2 2026-04-14 16:22 1.3M
20260414T12Z_MSC_GDPS_WindU_IsbL-0800_LatLon0.15_PT081H.grib2 2026-04-14 16:22 1.3M
20260414T12Z_MSC_GDPS_WindU_IsbL-0850_LatLon0.15_PT081H.grib2 2026-04-14 16:22 1.4M
20260414T12Z_MSC_GDPS_WindU_IsbL-0875_LatLon0.15_PT081H.grib2 2026-04-14 16:22 1.4M
20260414T12Z_MSC_GDPS_WindU_IsbL-0900_LatLon0.15_PT081H.grib2 2026-04-14 16:22 1.5M
20260414T12Z_MSC_GDPS_WindU_IsbL-0925_LatLon0.15_PT081H.grib2 2026-04-14 16:22 1.5M
20260414T12Z_MSC_GDPS_WindU_IsbL-0950_LatLon0.15_PT081H.grib2 2026-04-14 16:22 1.4M
20260414T12Z_MSC_GDPS_WindU_IsbL-0970_LatLon0.15_PT081H.grib2 2026-04-14 16:22 1.4M
20260414T12Z_MSC_GDPS_WindU_IsbL-0985_LatLon0.15_PT081H.grib2 2026-04-14 16:22 1.4M
20260414T12Z_MSC_GDPS_WindU_IsbL-1000_LatLon0.15_PT081H.grib2 2026-04-14 16:22 1.4M
20260414T12Z_MSC_GDPS_WindU_IsbL-1015_LatLon0.15_PT081H.grib2 2026-04-14 16:22 1.3M
20260414T12Z_MSC_GDPS_WindV_AGL-10m_LatLon0.15_PT081H.grib2 2026-04-14 16:22 1.3M
20260414T12Z_MSC_GDPS_WindV_AGL-120m_LatLon0.15_PT081H.grib2 2026-04-14 16:22 1.0M
20260414T12Z_MSC_GDPS_WindV_AGL-40m_LatLon0.15_PT081H.grib2 2026-04-14 16:22 1.0M
20260414T12Z_MSC_GDPS_WindV_AGL-80m_LatLon0.15_PT081H.grib2 2026-04-14 16:22 1.0M
20260414T12Z_MSC_GDPS_WindV_IsbL-0001_LatLon0.15_PT081H.grib2 2026-04-14 16:22 694K
20260414T12Z_MSC_GDPS_WindV_IsbL-0005_LatLon0.15_PT081H.grib2 2026-04-14 16:22 775K
20260414T12Z_MSC_GDPS_WindV_IsbL-0010_LatLon0.15_PT081H.grib2 2026-04-14 16:22 802K
20260414T12Z_MSC_GDPS_WindV_IsbL-0020_LatLon0.15_PT081H.grib2 2026-04-14 16:22 856K
20260414T12Z_MSC_GDPS_WindV_IsbL-0030_LatLon0.15_PT081H.grib2 2026-04-14 16:22 664K
20260414T12Z_MSC_GDPS_WindV_IsbL-0050_LatLon0.15_PT081H.grib2 2026-04-14 16:22 707K
20260414T12Z_MSC_GDPS_WindV_IsbL-0100_LatLon0.15_PT081H.grib2 2026-04-14 16:22 856K
20260414T12Z_MSC_GDPS_WindV_IsbL-0150_LatLon0.15_PT081H.grib2 2026-04-14 16:22 1.0M
20260414T12Z_MSC_GDPS_WindV_IsbL-0175_LatLon0.15_PT081H.grib2 2026-04-14 16:22 1.0M
20260414T12Z_MSC_GDPS_WindV_IsbL-0200_LatLon0.15_PT081H.grib2 2026-04-14 16:22 1.0M
20260414T12Z_MSC_GDPS_WindV_IsbL-0225_LatLon0.15_PT081H.grib2 2026-04-14 16:22 852K
20260414T12Z_MSC_GDPS_WindV_IsbL-0250_LatLon0.15_PT081H.grib2 2026-04-14 16:22 853K
20260414T12Z_MSC_GDPS_WindV_IsbL-0275_LatLon0.15_PT081H.grib2 2026-04-14 16:22 879K
20260414T12Z_MSC_GDPS_WindV_IsbL-0300_LatLon0.15_PT081H.grib2 2026-04-14 16:22 868K
20260414T12Z_MSC_GDPS_WindV_IsbL-0350_LatLon0.15_PT081H.grib2 2026-04-14 16:22 880K
20260414T12Z_MSC_GDPS_WindV_IsbL-0400_LatLon0.15_PT081H.grib2 2026-04-14 16:22 878K
20260414T12Z_MSC_GDPS_WindV_IsbL-0450_LatLon0.15_PT081H.grib2 2026-04-14 16:22 875K
20260414T12Z_MSC_GDPS_WindV_IsbL-0500_LatLon0.15_PT081H.grib2 2026-04-14 16:22 1.1M
20260414T12Z_MSC_GDPS_WindV_IsbL-0550_LatLon0.15_PT081H.grib2 2026-04-14 16:22 1.1M
20260414T12Z_MSC_GDPS_WindV_IsbL-0600_LatLon0.15_PT081H.grib2 2026-04-14 16:22 1.1M
20260414T12Z_MSC_GDPS_WindV_IsbL-0650_LatLon0.15_PT081H.grib2 2026-04-14 16:22 1.2M
20260414T12Z_MSC_GDPS_WindV_IsbL-0700_LatLon0.15_PT081H.grib2 2026-04-14 16:22 1.2M
20260414T12Z_MSC_GDPS_WindV_IsbL-0750_LatLon0.15_PT081H.grib2 2026-04-14 16:22 1.3M
20260414T12Z_MSC_GDPS_WindV_IsbL-0800_LatLon0.15_PT081H.grib2 2026-04-14 16:22 1.3M
20260414T12Z_MSC_GDPS_WindV_IsbL-0850_LatLon0.15_PT081H.grib2 2026-04-14 16:22 1.4M
20260414T12Z_MSC_GDPS_WindV_IsbL-0875_LatLon0.15_PT081H.grib2 2026-04-14 16:22 1.4M
20260414T12Z_MSC_GDPS_WindV_IsbL-0900_LatLon0.15_PT081H.grib2 2026-04-14 16:22 1.5M
20260414T12Z_MSC_GDPS_WindV_IsbL-0925_LatLon0.15_PT081H.grib2 2026-04-14 16:22 1.5M
20260414T12Z_MSC_GDPS_WindV_IsbL-0950_LatLon0.15_PT081H.grib2 2026-04-14 16:22 1.4M
20260414T12Z_MSC_GDPS_WindV_IsbL-0970_LatLon0.15_PT081H.grib2 2026-04-14 16:22 1.4M
20260414T12Z_MSC_GDPS_WindV_IsbL-0985_LatLon0.15_PT081H.grib2 2026-04-14 16:22 1.4M
20260414T12Z_MSC_GDPS_WindV_IsbL-1000_LatLon0.15_PT081H.grib2 2026-04-14 16:22 1.4M
20260414T12Z_MSC_GDPS_WindV_IsbL-1015_LatLon0.15_PT081H.grib2 2026-04-14 16:22 1.3M